Regional Weather Roundup
Issued by NWS

Home | Current Version | Previous Version | Text Only | Print | Product List | Glossary Off
Versions: 1 2 3 4 5 6 7 8 9 10 11 12 13 14 15 16 17 18 19 20 21 22 23 24 25 26 27 28 29 30 31 32 33 34 35 36 37 38 39 40 41 42 43 44 45 46 47 48 49 50

000
ASUS43 KIND 300759
RWRIN

WEATHER ROUNDUP FOR INDIANA
NATIONAL WEATHER SERVICE INDIANAPOLIS IN
400 AM EDT MON MAR 30 2015

NOTE: "FAIR" INDICATES FEW OR NO CLOUDS BELOW 12,000 FEET WITH NO
SIGNIFICANT WEATHER AND/OR OBSTRUCTIONS TO VISIBILITY.

* - STATION DOES NOT REPORT WEATHER SUCH AS PRECIPITATION OR FOG.

+ - STATION NOT QUALITY CONTROLLED BY THE NATIONAL WEATHER SERVICE.
    USE DATA WITH CAUTION...ESPECIALLY DEWPOINT AND RELATIVE
    HUMIDITY OBSERVATIONS.

INZ001>003-010>013-019-020-300900-
NORTHWEST INDIANA

CITY           SKY/WX    TMP DP  RH WIND       PRES   REMARKS

$$

LMZ046-743>745-300900-
SOUTHERN LAKE MICHIGAN

STATION/POSITION TIME  TEMP WIND        PRES
                       AIR  DIR/SP/G
                 (UTC) (F)  (DEG/KT/KT) (MB)
BURNS HARBOR     0700   40  250/  9/ 11 1015.2R
MICHIGAN CITY    0700   39  230/ 13/ 14   N/A

$$

INZ004-005-014>016-021>024-300900-
NORTH CENTRAL INDIANA

CITY           SKY/WX    TMP DP  RH WIND       PRES   REMARKS
GOSHEN         MOCLDY    38  30  73 W10       29.92R
SOUTH BEND     PTCLDY    37  29  72 W10       29.94S

$$

INZ006>009-017-018-025>027-300900-
NORTHEAST INDIANA

CITY           SKY/WX    TMP DP  RH WIND       PRES   REMARKS
ANGOLA *+      PTCLDY    39  30  70 VRB7      29.88S
FORT WAYNE     PTCLDY    40  30  67 W13       29.94R

$$

INZ028-029-035-036-043>045-051>053-300900-
WEST CENTRAL INDIANA

CITY           SKY/WX    TMP DP  RH WIND       PRES   REMARKS
CRAWFORDSVL +  CLEAR     34  29  83 W5        30.00F WCI  29
GREENCASTLE +  CLEAR     41  36  81 W3        30.01F
LAFAYETTE      CLEAR     36  32  85 W7        30.00R
TERRE HAUTE    CLEAR     41  38  89 W6        30.04S

$$

INZ030>032-037>040-046>048-054>057-064-065-300900-
CENTRAL INDIANA

CITY           SKY/WX    TMP DP  RH WIND       PRES   REMARKS
GREENWOOD *+   CLEAR     41  32  70 W5        30.00F
INDIANAPOLIS   CLEAR     38  32  79 W8        29.98F
-EAGLE CREEK   CLEAR     41  34  76 W5        29.99F
KOKOMO *+        N/A     39  34  81 W8        29.98R
MT COMFORT *+  CLEAR     36  27  69 W7        29.99S
SHELBYVILLE    CLEAR     42  33  70 W7        29.99F

$$

INZ033-034-041-042-049-050-058-059-300900-
EAST CENTRAL INDIANA

CITY           SKY/WX    TMP DP  RH WIND       PRES   REMARKS
MUNCIE         PTCLDY    39  33  79 W8        29.96F

$$

INZ060-061-067>069-081>083-085>088-300900-
SOUTHWEST INDIANA

CITY           SKY/WX    TMP DP  RH WIND       PRES   REMARKS
EVANSVILLE     CLEAR     53  42  66 W9        30.06S
HUNTINGBURG *+ PTCLDY    46  39  76 NW9       30.04S

$$

INZ062-063-066-070>080-084-089>092-300900-
SOUTH CENTRAL AND SOUTHEAST INDIANA

CITY           SKY/WX    TMP DP  RH WIND       PRES   REMARKS
BLOOMINGTON    CLEAR     45  40  82 NW6       30.01F
SEYMOUR +      PTCLDY    48  41  76 NW10G16   30.01S

$$



USA.gov is the U.S. government's official web portal to all federal, state and local government web resources and services.